Weather History for Milford, UT

Change the Weather History Date:

Thursday, October 3, 2013

  Actual Average Record
Temperature  
Mean Temperature 48 °F -  
Max Temperature 60 °F 73 °F 86 °F (2012)
Min Temperature 35 °F 37 °F 32 °F (2002)
Degree Days  
Heating Degree Days 18    
Moisture  
Dew Point 24 °F    
Average Humidity 34    
Maximum Humidity 56    
Minimum Humidity 12    
Precipitation  
Precipitation 0.00 in - - ()
Sea Level Pressure  
Sea Level Pressure 29.82 in    
Wind  
Wind Speed 16 mph (North)    
Max Wind Speed 28 mph    
Max Gust Speed 37 mph    
Visibility 10 miles    
Events Rain    
Averages and records for this station are not official NWS values.
T = Trace of Precipitation, MM = Missing Value Source: NWS Daily Summary

Daily Weather History Graph

Daily Weather History Graph

Search for Another Location

Airport:

Trip Planner

Search our weather history database for the weather conditions in past years. The results will help you decide how hot, cold, wet, or windy it might be!

Date:

Astronomy

Oct. 03, 2013 Rise Set
Actual Time 7:29 AM MDT 7:11 PM MDT
Civil Twilight 7:03 AM MDT 7:37 PM MDT
Nautical Twilight 6:32 AM MDT 8:08 PM MDT
Astronomical Twilight 6:01 AM MDT 8:39 PM MDT
Moon 6:07 AM MDT (10/3) 6:21 PM MDT (10/3)
Length of Visible Light 12h 34m
Length of Day
11h 41m
Waning Crescent, 2% of the Moon is Illuminated
Oct 3
Waning Crescent
Oct 4
New
Oct 11
First Quarter
Oct 18
Full
Oct 26
Last Quarter

Hourly Weather History & Observations

Time (MDT) Temp. Windchill Dew Point Humidity Pressure Visibility Wind Dir Wind Speed Gust Speed Precip Events Conditions
12:52 AM 54.0 °F - 30.0 °F 40% 29.72 in 10.0 mi SSW 15.0 mph - N/A   Clear
1:52 AM 55.0 °F - 30.0 °F 38% 29.70 in 10.0 mi South 13.8 mph - N/A   Clear
2:52 AM 55.0 °F - 30.0 °F 38% 29.70 in 10.0 mi South 11.5 mph - N/A   Clear
3:52 AM 55.0 °F - 30.9 °F 40% 29.68 in 10.0 mi South 13.8 mph - N/A   Clear
4:52 AM 53.1 °F - 30.9 °F 43% 29.69 in 10.0 mi South 11.5 mph - N/A   Clear
5:52 AM 51.1 °F - 32.0 °F 48% 29.69 in 10.0 mi SSE 10.4 mph - N/A   Clear
6:52 AM 46.0 °F 41.0 °F 30.9 °F 56% 29.71 in 10.0 mi SSW 10.4 mph - N/A   Clear
7:52 AM 50.0 °F - 33.1 °F 52% 29.73 in 10.0 mi NNW 13.8 mph - N/A   Clear
8:52 AM 52.0 °F - 26.1 °F 37% 29.75 in 10.0 mi North 25.3 mph 31.1 mph N/A   Overcast
9:52 AM 52.0 °F - 25.0 °F 35% 29.77 in 10.0 mi North 23.0 mph 29.9 mph N/A   Mostly Cloudy
10:52 AM 54.0 °F - 21.9 °F 29% 29.78 in 10.0 mi North 27.6 mph 32.2 mph N/A   Scattered Clouds
11:52 AM 55.9 °F - 21.9 °F 27% 29.79 in 10.0 mi NNE 24.2 mph 28.8 mph N/A   Overcast
12:52 PM 57.0 °F - 21.0 °F 25% 29.79 in 10.0 mi North 21.9 mph 31.1 mph N/A   Clear
1:52 PM 57.9 °F - 21.0 °F 24% 29.78 in 10.0 mi NNE 25.3 mph 31.1 mph N/A   Clear
2:52 PM 57.0 °F - 19.0 °F 23% 29.79 in 10.0 mi NNE 27.6 mph 36.8 mph N/A   Clear
3:52 PM 54.0 °F - 19.0 °F 25% 29.82 in 10.0 mi North 25.3 mph 35.7 mph N/A   Mostly Cloudy
4:52 PM 51.1 °F - 19.0 °F 28% 29.88 in 10.0 mi North 26.5 mph 31.1 mph N/A   Overcast
5:52 PM 46.9 °F - 23.0 °F 39% 29.94 in 10.0 mi North 15.0 mph 31.1 mph 0.00 in Rain Light Rain
6:52 PM 46.9 °F - 18.0 °F 32% 29.96 in 10.0 mi NE 9.2 mph - 0.00 in   Scattered Clouds
8:52 PM 37.0 °F 31.6 °F 17.1 °F 44% 30.01 in 10.0 mi NNW 6.9 mph - N/A   Clear
10:52 PM 37.0 °F 29.8 °F 14.0 °F 39% 30.06 in 10.0 mi NNW 10.4 mph - N/A   Clear
11:52 PM 35.1 °F 32.2 °F 16.0 °F 46% 30.07 in 10.0 mi Variable 3.5 mph - N/A   Clear